Weather in Miami

United States     25°47′32″N   80°15′03″W
temp.,
°C
wind,
m/s
gust,
m/s
humid.,
%
clouds,
%
prec.,
mm/h
press.,
hPa
HPBL,
m
26 may, thu
thu2623:00+27ese787046 0.2 10191020
02:00+27ese6769100 0.3 10181002
05:00+26ese6766100 0.0 10171148
08:00+27e7869100 0.1 10191060
11:00+28ese675988 0.1 10191220
14:00+29ese675474 0.1 10191299
17:00+28ese5563100 0.0 10171070
20:00+27ese666960 0.1 1017952
27 may, fri
fri2723:00+27ese666841 0.0 1018998
02:00+27ese777236 0.1 1016875
05:00+26se567510 0.6 1016759
08:00+27se557232 1.4 1017824
11:00+28se556516 0.9 10171090
14:00+29se656217 1.2 10161160
17:00+29se656111 0.1 1015996
20:00+28sse44671 0.1 1015779
28 may, sat
sat2823:00+27sse55700 0.0 1015725
02:00+27sse34680 0.0 1014837
05:00+26s34717 0.0 1014667
08:00+27s34715 0.4 1014742
11:00+29sse445911 0.1 10141262
14:00+28sse666352 0.3 1014735
17:00+28sse666497 0.3 1013550
20:00+28sse56634 0.3 1013561
29 may, sun
sun2923:00+27s33670 0.3 1014405
02:00+27sse22690 0.5 1014416
05:00+27se33710 0.0 1014573
08:00+27se33700 0.0 1015696
11:00+29ese43585 0.0 1015893
14:00+30ese545687 0.0 10151100
17:00+29e655961 0.0 10141024
20:00+28e676670 0.0 1014904
30 may, mon
mon3023:00+28ese566832 0.0 1017947
02:00+27ese5573100 0.0 1016835
05:00+27e347199 1.0 1016695
08:00+27e557298 1.0 1017872
11:00+28e6666100 0.1 10181155
14:00+29e7663100 0.4 10171227
17:00+28e676493 1.3 10161141
20:00+28e896712 1.8 10161162